Simultaneous Nadir Overpasses (SNOs) Predictions

Prediction of SNOs between AURA and NPP Satellite Orbit:

Table of predicted SNOs for the next 14.0 days since TLE Epoch: 12/10/2022
Index Date (AURA) Time (AURA) Lat,Lon (AURA) SZA (AURA ) Date (NPP) Time (NPP) Lat,Lon (NPP) SZA (NPP ) Distance(km) Time Diff (sec)
1 12/11/2022 11:26:11 79.33, -95.54 114.88 12/11/2022 11:25:30 79.34, -95.45 114.89 2.01 41
2 12/11/2022 12:15:33 -79.52, 73.43 65.39 12/11/2022 12:16:10 -79.52, 73.32 65.40 2.34 37
3 12/14/2022 03:42:39 79.43, 21.02 114.98 12/14/2022 03:42:26 79.44, 21.13 114.97 2.35 13
4 12/14/2022 04:32:01 -79.62,-169.97 65.29 12/14/2022 04:33:06 -79.62,-170.06 65.32 1.97 65
5 12/16/2022 19:09:47 -79.28, -31.73 64.63 12/16/2022 19:08:45 -79.29, -31.61 64.61 2.65 62
6 12/16/2022 19:59:07 79.50, 137.41 115.07 12/16/2022 19:59:23 79.50, 137.42 115.06 0.18 16
7 12/19/2022 11:26:16 -79.29, 84.23 64.51 12/19/2022 11:25:44 -79.28, 84.13 64.47 2.24 32
8 12/19/2022 12:15:33 79.62,-105.84 115.04 12/19/2022 12:16:18 79.63,-105.75 114.99 1.74 45
9 12/22/2022 03:42:38 -79.50,-158.45 64.72 12/22/2022 03:42:35 -79.51,-158.30 64.75 3.07 3



Historial Predications of SNOs between AURA and NPP
